| time (UTC) | temp F | wind direction | speed MPH | gust MPH | rain 1hr in | rain 24hr in | rain mn in | humidity % | barometer mb |
| 20260510224502 | 68 | 337 | 0.0 | 2.0 | 0.00 | 0.05 | 0.05 | 40 | 1015.3 |
| 20260510224001 | 68 | 337 | 0.0 | 3.0 | 0.00 | 0.05 | 0.05 | 36 | 1015.3 |
| 20260510223503 | 69 | 336 | 0.0 | 3.0 | 0.00 | 0.05 | 0.05 | 38 | 1015.2 |
| 20260510223107 | 69 | 336 | 1.0 | 3.0 | 0.00 | 0.05 | 0.05 | 41 | 1015.2 |
| 20260510223000 | 69 | 336 | 0.0 | 3.0 | 0.00 | 0.05 | 0.05 | 39 | 1015.2 |
| 20260510222501 | 69 | 340 | 0.0 | 2.0 | 0.00 | 0.05 | 0.05 | 38 | 1015.2 |
| 20260510222002 | 69 | 340 | 0.0 | 2.0 | 0.00 | 0.05 | 0.05 | 39 | 1015.3 |
| 20260510221501 | 69 | 340 | 1.0 | 3.0 | 0.00 | 0.05 | 0.05 | 36 | 1015.3 |
| 20260510221103 | 69 | 341 | 1.0 | 3.0 | 0.00 | 0.05 | 0.05 | 34 | 1015.3 |
| 20260510220600 | 70 | 33 | 1.0 | 2.0 | 0.00 | 0.05 | 0.05 | 33 | 1015.3 |
| 20260510220100 | 70 | 5 | 0.0 | 2.0 | 0.00 | 0.05 | 0.05 | 35 | 1015.3 |
| 20260510215600 | 70 | 5 | 0.0 | 3.0 | 0.00 | 0.05 | 0.05 | 35 | 1015.3 |
| 20260510215101 | 70 | 5 | 1.0 | 3.0 | 0.00 | 0.05 | 0.05 | 33 | 1015.4 |
| 20260510214558 | 71 | 292 | 0.0 | 2.0 | 0.00 | 0.05 | 0.05 | 39 | 1015.3 |
| 20260510214057 | 71 | 291 | 0.0 | 2.0 | 0.00 | 0.05 | 0.05 | 34 | 1015.1 |
| 20260510213557 | 72 | 291 | 0.0 | 4.0 | 0.00 | 0.05 | 0.05 | 35 | 1015.0 |
| 20260510213059 | 72 | 300 | 0.0 | 3.0 | 0.00 | 0.05 | 0.05 | 32 | 1015.0 |
| 20260510212558 | 72 | 300 | 1.0 | 3.0 | 0.00 | 0.05 | 0.05 | 34 | 1014.9 |
| 20260510212056 | 72 | 252 | 0.0 | 2.0 | 0.00 | 0.05 | 0.05 | 33 | 1014.9 |
| 20260510211556 | 73 | 253 | 0.0 | 3.0 | 0.00 | 0.05 | 0.05 | 33 | 1014.9 |
| 20260510211056 | 73 | 187 | 0.0 | 7.0 | 0.00 | 0.05 | 0.05 | 33 | 1015.0 |
| 20260510210555 | 73 | 101 | 2.0 | 7.0 | 0.00 | 0.05 | 0.05 | 31 | 1014.8 |
| 20260510210054 | 73 | 313 | 2.0 | 4.0 | 0.00 | 0.05 | 0.05 | 33 | 1014.8 |
| 20260510205558 | 73 | 319 | 0.0 | 4.0 | 0.00 | 0.05 | 0.05 | 37 | 1014.6 |
| 20260510205054 | 73 | 335 | 1.0 | 4.0 | 0.00 | 0.05 | 0.05 | 30 | 1014.6 |
| 20260510204602 | 74 | 327 | 0.0 | 3.0 | 0.00 | 0.05 | 0.05 | 35 | 1014.7 |
| 20260510204053 | 74 | 281 | 0.0 | 3.0 | 0.00 | 0.05 | 0.05 | 33 | 1014.6 |
| 20260510203556 | 74 | 281 | 1.0 | 3.0 | 0.00 | 0.05 | 0.05 | 35 | 1014.7 |
| 20260510203055 | 74 | 281 | 0.0 | 4.0 | 0.00 | 0.05 | 0.05 | 34 | 1014.7 |
| 20260510202552 | 74 | 304 | 0.0 | 4.0 | 0.00 | 0.05 | 0.05 | 36 | 1014.8 |
| 20260510202055 | 74 | 318 | 1.0 | 3.0 | 0.00 | 0.05 | 0.05 | 33 | 1014.9 |
| 20260510201552 | 74 | 343 | 1.0 | 3.0 | 0.00 | 0.05 | 0.05 | 31 | 1014.9 |
| 20260510201052 | 74 | 22 | 0.0 | 3.0 | 0.00 | 0.05 | 0.05 | 32 | 1014.9 |
| 20260510200551 | 74 | 321 | 1.0 | 4.0 | 0.00 | 0.05 | 0.05 | 37 | 1014.9 |
| 20260510200114 | 74 | 218 | 0.0 | 4.0 | 0.00 | 0.05 | 0.05 | 36 | 1014.9 |
| 20260510195552 | 74 | 263 | 1.0 | 4.0 | 0.00 | 0.05 | 0.05 | 37 | 1015.0 |
| 20260510195051 | 74 | 81 | 0.0 | 5.0 | 0.00 | 0.05 | 0.05 | 32 | 1014.9 |
| 20260510194558 | 74 | 323 | 1.0 | 5.0 | 0.00 | 0.05 | 0.05 | 33 | 1014.9 |
| 20260510194051 | 74 | 271 | 0.0 | 4.0 | 0.00 | 0.05 | 0.05 | 32 | 1014.8 |
| 20260510193550 | 74 | 315 | 1.0 | 4.0 | 0.00 | 0.05 | 0.05 | 36 | 1015.0 |
| 20260510193102 | 74 | 335 | 0.0 | 3.0 | 0.00 | 0.05 | 0.05 | 33 | 1015.0 |
| 20260510192552 | 74 | 46 | 0.0 | 3.0 | 0.00 | 0.05 | 0.05 | 33 | 1015.0 |
| 20260510192047 | 74 | 323 | 1.0 | 4.0 | 0.00 | 0.05 | 0.05 | 36 | 1014.9 |
| 20260510191555 | 74 | 334 | 2.0 | 4.0 | 0.00 | 0.05 | 0.05 | 30 | 1014.9 |
| 20260510191046 | 74 | 18 | 0.0 | 2.0 | 0.00 | 0.05 | 0.05 | 32 | 1014.9 |
| 20260510190547 | 73 | 31 | 0.0 | 2.0 | 0.00 | 0.05 | 0.05 | 32 | 1014.8 |
| 20260510190045 | 74 | 316 | 0.0 | 2.0 | 0.00 | 0.05 | 0.05 | 35 | 1014.9 |
| 20260510185545 | 74 | 317 | 0.0 | 3.0 | 0.00 | 0.05 | 0.05 | 36 | 1014.9 |
| 20260510185042 | 73 | 317 | 0.0 | 3.0 | 0.00 | 0.05 | 0.05 | 38 | 1015.0 |
| 20260510184542 | 73 | 26 | 0.0 | 2.0 | 0.00 | 0.05 | 0.05 | 35 | 1014.8 |
| 20260510184143 | 73 | 24 | 0.0 | 3.0 | 0.00 | 0.05 | 0.05 | 37 | 1014.9 |
| 20260510183541 | 72 | 24 | 1.0 | 3.0 | 0.00 | 0.05 | 0.05 | 34 | 1014.9 |
| 20260510183048 | 72 | 315 | 0.0 | 5.0 | 0.00 | 0.05 | 0.05 | 33 | 1015.0 |
| 20260510182539 | 73 | 315 | 1.0 | 5.0 | 0.00 | 0.05 | 0.05 | 35 | 1015.2 |
| 20260510182039 | 73 | 38 | 1.0 | 3.0 | 0.00 | 0.05 | 0.05 | 34 | 1015.2 |
| 20260510181542 | 73 | 40 | 1.0 | 3.0 | 0.00 | 0.05 | 0.05 | 36 | 1015.1 |
| 20260510181043 | 73 | 347 | 1.0 | 3.0 | 0.00 | 0.05 | 0.05 | 37 | 1015.2 |
| 20260510180539 | 73 | 74 | 0.0 | 4.0 | 0.00 | 0.05 | 0.05 | 41 | 1015.0 |
| 20260510180041 | 72 | 278 | 1.0 | 4.0 | 0.00 | 0.05 | 0.05 | 36 | 1015.1 |
| 20260510175538 | 73 | 296 | 0.0 | 3.0 | 0.00 | 0.05 | 0.05 | 39 | 1015.2 |
| 20260510175038 | 72 | 292 | 0.0 | 4.0 | 0.00 | 0.05 | 0.05 | 35 | 1015.2 |
| 20260510174543 | 72 | 321 | 0.0 | 3.0 | 0.00 | 0.05 | 0.05 | 40 | 1015.3 |
| 20260510174038 | 72 | 46 | 0.0 | 4.0 | 0.00 | 0.05 | 0.05 | 39 | 1015.2 |
| 20260510173536 | 72 | 89 | 0.0 | 4.0 | 0.00 | 0.05 | 0.05 | 34 | 1015.2 |
| 20260510173037 | 72 | 51 | 0.0 | 4.0 | 0.00 | 0.05 | 0.05 | 37 | 1015.3 |
| 20260510172535 | 72 | 50 | 1.0 | 4.0 | 0.00 | 0.05 | 0.05 | 38 | 1015.2 |
| 20260510172037 | 72 | 300 | 1.0 | 4.0 | 0.00 | 0.05 | 0.05 | 36 | 1015.2 |
| 20260510171539 | 72 | 107 | 1.0 | 8.0 | 0.00 | 0.05 | 0.05 | 35 | 1015.1 |
| 20260510171034 | 72 | 97 | 2.0 | 8.0 | 0.00 | 0.05 | 0.05 | 38 | 1015.0 |
| 20260510170532 | 72 | 118 | 0.0 | 4.0 | 0.00 | 0.05 | 0.05 | 41 | 1015.0 |
| 20260510170032 | 71 | 343 | 0.0 | 5.0 | 0.00 | 0.05 | 0.05 | 45 | 1015.0 |
| 20260510165532 | 71 | 92 | 1.0 | 5.0 | 0.00 | 0.05 | 0.05 | 39 | 1014.9 |
| 20260510165032 | 71 | 126 | 1.0 | 5.0 | 0.00 | 0.05 | 0.05 | 39 | 1015.0 |
| 20260510164541 | 71 | 61 | 0.0 | 3.0 | 0.00 | 0.05 | 0.05 | 40 | 1014.9 |
| 20260510164032 | 71 | 355 | 0.0 | 4.0 | 0.00 | 0.05 | 0.05 | 41 | 1015.1 |
| 20260510163531 | 71 | 329 | 1.0 | 7.0 | 0.00 | 0.05 | 0.05 | 39 | 1015.0 |
| 20260510163029 | 70 | 118 | 2.0 | 7.0 | 0.00 | 0.05 | 0.05 | 39 | 1015.0 |
| 20260510162527 | 70 | 300 | 0.0 | 3.0 | 0.00 | 0.05 | 0.05 | 39 | 1015.2 |
| 20260510162025 | 70 | 299 | 0.0 | 3.0 | 0.00 | 0.05 | 0.05 | 39 | 1015.2 |
| 20260510161525 | 70 | 213 | 0.0 | 2.0 | 0.00 | 0.05 | 0.05 | 42 | 1015.1 |
| 20260510161024 | 69 | 173 | 0.0 | 2.0 | 0.00 | 0.05 | 0.05 | 45 | 1015.2 |
| 20260510160522 | 69 | 146 | 0.0 | 5.0 | 0.00 | 0.05 | 0.05 | 42 | 1015.1 |
| 20260510160025 | 69 | 146 | 1.0 | 5.0 | 0.00 | 0.05 | 0.05 | 46 | 1015.0 |
| 20260510155522 | 68 | 328 | 0.0 | 4.0 | 0.00 | 0.05 | 0.05 | 43 | 1014.8 |
| 20260510155019 | 68 | 26 | 0.0 | 4.0 | 0.00 | 0.05 | 0.05 | 46 | 1014.9 |
| 20260510154518 | 68 | 81 | 0.0 | 5.0 | 0.00 | 0.05 | 0.05 | 44 | 1014.8 |
| 20260510154017 | 67 | 107 | 2.0 | 5.0 | 0.00 | 0.05 | 0.05 | 46 | 1015.0 |
| 20260510153514 | 67 | 33 | 0.0 | 2.0 | 0.00 | 0.05 | 0.05 | 50 | 1015.0 |
| 20260510153016 | 66 | 63 | 0.0 | 4.0 | 0.00 | 0.05 | 0.05 | 52 | 1014.9 |
| 20260510152512 | 66 | 304 | 1.0 | 4.0 | 0.00 | 0.05 | 0.05 | 49 | 1014.8 |
| 20260510152010 | 65 | 317 | 0.0 | 4.0 | 0.00 | 0.05 | 0.05 | 49 | 1014.9 |
| 20260510151509 | 65 | 319 | 0.0 | 3.0 | 0.00 | 0.05 | 0.05 | 54 | 1014.9 |
| 20260510151008 | 65 | 92 | 0.0 | 7.0 | 0.00 | 0.05 | 0.05 | 59 | 1014.7 |
| 20260510150507 | 64 | 9 | 2.0 | 7.0 | 0.00 | 0.05 | 0.05 | 55 | 1014.7 |
| 20260510150006 | 63 | 123 | 1.0 | 4.0 | 0.00 | 0.05 | 0.05 | 60 | 1014.5 |
| 20260510145506 | 62 | 315 | 0.0 | 2.0 | 0.00 | 0.05 | 0.05 | 63 | 1014.5 |
| 20260510145004 | 61 | 243 | 0.0 | 3.0 | 0.00 | 0.05 | 0.05 | 65 | 1014.5 |
| 20260510144501 | 61 | 244 | 0.0 | 3.0 | 0.00 | 0.05 | 0.05 | 65 | 1014.4 |
| 20260510144100 | 61 | 233 | 1.0 | 3.0 | 0.00 | 0.05 | 0.05 | 67 | 1014.4 |
| 20260510143559 | 60 | 313 | 0.0 | 2.0 | 0.00 | 0.05 | 0.05 | 67 | 1014.4 |
| 20260510143058 | 60 | 316 | 0.0 | 2.0 | 0.00 | 0.05 | 0.05 | 68 | 1014.4 |
| 20260510142558 | 60 | 317 | 0.0 | 2.0 | 0.00 | 0.05 | 0.05 | 68 | 1014.3 |
| 20260510142057 | 60 | 316 | 0.0 | 2.0 | 0.00 | 0.05 | 0.05 | 70 | 1014.3 |
| 20260510141602 | 60 | 316 | 0.0 | 2.0 | 0.00 | 0.05 | 0.05 | 71 | 1014.2 |
| 20260510141053 | 60 | 317 | 0.0 | 3.0 | 0.00 | 0.05 | 0.05 | 73 | 1014.1 |
| 20260510140553 | 59 | 318 | 0.0 | 3.0 | 0.00 | 0.05 | 0.05 | 74 | 1014.0 |
| 20260510140054 | 59 | 321 | 0.0 | 3.0 | 0.00 | 0.05 | 0.05 | 75 | 1014.0 |
| 20260510135550 | 59 | 188 | 0.0 | 1.0 | 0.00 | 0.05 | 0.05 | 78 | 1013.9 |
| 20260510135049 | 58 | 163 | 0.0 | 1.0 | 0.00 | 0.05 | 0.05 | 78 | 1013.8 |
| 20260510134555 | 57 | 170 | 0.0 | 2.0 | 0.00 | 0.05 | 0.05 | 79 | 1013.7 |
| 20260510134049 | 57 | 184 | 0.0 | 2.0 | 0.00 | 0.05 | 0.05 | 79 | 1013.6 |
| 20260510133545 | 56 | 272 | 0.0 | 2.0 | 0.00 | 0.05 | 0.05 | 79 | 1013.6 |
| 20260510133100 | 56 | 265 | 0.0 | 4.0 | 0.00 | 0.05 | 0.05 | 79 | 1013.5 |
| 20260510132542 | 56 | 264 | 0.0 | 4.0 | 0.00 | 0.05 | 0.05 | 79 | 1013.5 |
| 20260510132042 | 56 | 28 | 0.0 | 3.0 | 0.00 | 0.05 | 0.05 | 79 | 1013.3 |
| 20260510131539 | 56 | 279 | 0.0 | 3.0 | 0.00 | 0.05 | 0.05 | 79 | 1013.1 |
| 20260510131040 | 56 | 298 | 0.0 | 2.0 | 0.00 | 0.05 | 0.05 | 79 | 1013.1 |
| 20260510130539 | 56 | 82 | 0.0 | 0.0 | 0.00 | 0.05 | 0.05 | 79 | 1013.0 |
| 20260510130038 | 56 | 344 | 0.0 | 0.0 | 0.00 | 0.05 | 0.05 | 79 | 1012.9 |
| 20260510125538 | 56 | 344 | 0.0 | 0.0 | 0.00 | 0.05 | 0.05 | 79 | 1012.9 |
| 20260510125037 | 56 | 344 | 0.0 | 0.0 | 0.00 | 0.05 | 0.05 | 79 | 1012.9 |
| 20260510124540 | 55 | 344 | 0.0 | 0.0 | 0.00 | 0.05 | 0.05 | 79 | 1012.8 |
| 20260510124036 | 55 | 344 | 0.0 | 0.0 | 0.00 | 0.05 | 0.05 | 79 | 1012.7 |
| 20260510123535 | 55 | 335 | 0.0 | 0.0 | 0.01 | 0.05 | 0.05 | 78 | 1012.6 |
| 20260510123040 | 55 | 336 | 0.0 | 0.0 | 0.01 | 0.05 | 0.05 | 78 | 1012.5 |
| 20260510122533 | 55 | 336 | 0.0 | 0.0 | 0.01 | 0.05 | 0.05 | 78 | 1012.3 |
| 20260510122032 | 55 | 333 | 0.0 | 0.0 | 0.01 | 0.05 | 0.05 | 78 | 1012.2 |
| 20260510121532 | 55 | 333 | 0.0 | 0.0 | 0.02 | 0.05 | 0.05 | 78 | 1012.2 |
| 20260510121033 | 55 | 333 | 0.0 | 0.0 | 0.02 | 0.05 | 0.05 | 78 | 1012.1 |
| 20260510120531 | 55 | 333 | 0.0 | 0.0 | 0.02 | 0.05 | 0.05 | 78 | 1011.9 |
| 20260510120032 | 55 | 333 | 0.0 | 0.0 | 0.02 | 0.06 | 0.05 | 78 | 1011.8 |
| 20260510115533 | 55 | 333 | 0.0 | 0.0 | 0.03 | 0.06 | 0.05 | 77 | 1011.8 |
| 20260510115030 | 55 | 333 | 0.0 | 0.0 | 0.05 | 0.06 | 0.05 | 77 | 1011.7 |
| 20260510114529 | 55 | 333 | 0.0 | 0.0 | 0.05 | 0.06 | 0.05 | 77 | 1011.8 |
| 20260510114030 | 55 | 333 | 0.0 | 0.0 | 0.05 | 0.06 | 0.05 | 77 | 1011.8 |
| 20260510113526 | 55 | 333 | 0.0 | 0.0 | 0.04 | 0.05 | 0.04 | 77 | 1011.7 |
| 20260510113026 | 54 | 333 | 0.0 | 0.0 | 0.04 | 0.05 | 0.04 | 77 | 1011.6 |
| 20260510112524 | 54 | 333 | 0.0 | 0.0 | 0.04 | 0.05 | 0.04 | 76 | 1011.9 |
| 20260510112027 | 54 | 333 | 0.0 | 0.0 | 0.04 | 0.05 | 0.04 | 76 | 1012.0 |
| 20260510111524 | 54 | 333 | 0.0 | 0.0 | 0.03 | 0.04 | 0.03 | 76 | 1012.0 |
| 20260510111023 | 54 | 333 | 0.0 | 0.0 | 0.03 | 0.04 | 0.03 | 76 | 1012.0 |
| 20260510110522 | 54 | 333 | 0.0 | 0.0 | 0.03 | 0.04 | 0.03 | 75 | 1011.7 |
| 20260510110022 | 54 | 333 | 0.0 | 0.0 | 0.03 | 0.08 | 0.03 | 75 | 1011.8 |
| 20260510105521 | 54 | 333 | 0.0 | 0.0 | 0.02 | 0.07 | 0.02 | 75 | 1011.8 |
| 20260510105020 | 53 | 333 | 0.0 | 0.0 | 0.00 | 0.05 | 0.00 | 74 | 1011.5 |
| 20260510104518 | 53 | 333 | 0.0 | 0.0 | 0.00 | 0.05 | 0.00 | 74 | 1011.2 |
| 20260510104017 | 53 | 333 | 0.0 | 0.0 | 0.00 | 0.05 | 0.00 | 74 | 1011.2 |
| 20260510103517 | 53 | 333 | 0.0 | 0.0 | 0.00 | 0.05 | 0.00 | 74 | 1010.9 |
| 20260510103016 | 53 | 333 | 0.0 | 0.0 | 0.00 | 0.05 | 0.00 | 74 | 1010.8 |
| 20260510102515 | 53 | 333 | 0.0 | 0.0 | 0.00 | 0.05 | 0.00 | 74 | 1010.8 |
| 20260510102016 | 53 | 333 | 0.0 | 0.0 | 0.00 | 0.05 | 0.00 | 73 | 1010.7 |
| 20260510101514 | 53 | 333 | 0.0 | 0.0 | 0.00 | 0.05 | 0.00 | 73 | 1010.6 |
| 20260510101014 | 53 | 333 | 0.0 | 0.0 | 0.00 | 0.05 | 0.00 | 73 | 1010.6 |
| 20260510100515 | 53 | 333 | 0.0 | 0.0 | 0.00 | 0.05 | 0.00 | 73 | 1010.6 |
| 20260510100013 | 53 | 333 | 0.0 | 0.0 | 0.00 | 0.08 | 0.00 | 73 | 1010.5 |
| 20260510095513 | 53 | 333 | 0.0 | 0.0 | 0.00 | 0.08 | 0.00 | 73 | 1010.5 |
| 20260510095011 | 53 | 333 | 0.0 | 0.0 | 0.00 | 0.08 | 0.00 | 73 | 1010.4 |
| 20260510094511 | 53 | 333 | 0.0 | 0.0 | 0.00 | 0.08 | 0.00 | 73 | 1010.2 |
| 20260510094011 | 53 | 333 | 0.0 | 0.0 | 0.00 | 0.08 | 0.00 | 73 | 1010.3 |
| 20260510093511 | 53 | 333 | 0.0 | 0.0 | 0.00 | 0.08 | 0.00 | 73 | 1010.4 |
| 20260510093011 | 53 | 333 | 0.0 | 0.0 | 0.00 | 0.08 | 0.00 | 72 | 1010.3 |
| 20260510092509 | 53 | 333 | 0.0 | 0.0 | 0.00 | 0.08 | 0.00 | 72 | 1010.2 |
| 20260510092009 | 53 | 333 | 0.0 | 0.0 | 0.00 | 0.08 | 0.00 | 72 | 1010.1 |
| 20260510091511 | 54 | 333 | 0.0 | 0.0 | 0.00 | 0.08 | 0.00 | 72 | 1010.1 |
| 20260510091008 | 54 | 333 | 0.0 | 0.0 | 0.00 | 0.08 | 0.00 | 72 | 1010.1 |
| 20260510090513 | 54 | 333 | 0.0 | 0.0 | 0.00 | 0.08 | 0.00 | 72 | 1010.1 |
| 20260510090008 | 54 | 333 | 0.0 | 0.0 | 0.00 | 0.12 | 0.00 | 72 | 1010.0 |
| 20260510085508 | 54 | 333 | 0.0 | 0.0 | 0.00 | 0.12 | 0.00 | 72 | 1010.1 |
| 20260510085006 | 54 | 333 | 0.0 | 0.0 | 0.00 | 0.12 | 0.00 | 72 | 1010.0 |
| 20260510084505 | 54 | 333 | 0.0 | 0.0 | 0.00 | 0.12 | 0.00 | 71 | 1010.0 |
| 20260510084006 | 54 | 333 | 0.0 | 0.0 | 0.00 | 0.12 | 0.00 | 71 | 1010.0 |
| 20260510083506 | 54 | 333 | 0.0 | 0.0 | 0.00 | 0.12 | 0.00 | 71 | 1010.0 |
| 20260510083005 | 54 | 333 | 0.0 | 0.0 | 0.00 | 0.12 | 0.00 | 71 | 1010.0 |
| 20260510082507 | 54 | 333 | 0.0 | 0.0 | 0.00 | 0.12 | 0.00 | 71 | 1009.9 |
| 20260510082003 | 55 | 333 | 0.0 | 0.0 | 0.00 | 0.12 | 0.00 | 71 | 1010.0 |
| 20260510081502 | 55 | 333 | 0.0 | 0.0 | 0.00 | 0.12 | 0.00 | 70 | 1009.6 |
| 20260510081001 | 55 | 333 | 0.0 | 0.0 | 0.00 | 0.12 | 0.00 | 70 | 1009.7 |
| 20260510080600 | 55 | 333 | 0.0 | 0.0 | 0.00 | 0.12 | 0.00 | 70 | 1009.3 |
| 20260510080100 | 55 | 333 | 0.0 | 0.0 | 0.00 | 0.14 | 0.00 | 70 | 1009.4 |
| 20260510075558 | 55 | 333 | 0.0 | 0.0 | 0.00 | 0.14 | 0.00 | 70 | 1009.2 |
| 20260510075058 | 56 | 333 | 0.0 | 0.0 | 0.00 | 0.14 | 0.00 | 70 | 1009.0 |
| 20260510074558 | 56 | 333 | 0.0 | 0.0 | 0.00 | 0.14 | 0.00 | 70 | 1008.8 |
| 20260510074058 | 56 | 333 | 0.0 | 0.0 | 0.00 | 0.14 | 0.00 | 70 | 1008.8 |
| 20260510073556 | 56 | 333 | 0.0 | 0.0 | 0.00 | 0.14 | 0.00 | 70 | 1008.8 |
| 20260510073112 | 56 | 333 | 0.0 | 0.0 | 0.00 | 0.14 | 0.00 | 70 | 1008.7 |
| 20260510072556 | 56 | 333 | 0.0 | 0.0 | 0.00 | 0.14 | 0.00 | 70 | 1008.9 |
| 20260510072056 | 56 | 333 | 0.0 | 0.0 | 0.00 | 0.14 | 0.00 | 70 | 1008.9 |
| 20260510071605 | 56 | 333 | 0.0 | 0.0 | 0.00 | 0.14 | 0.00 | 70 | 1008.8 |
| 20260510071055 | 56 | 333 | 0.0 | 0.0 | 0.00 | 0.14 | 0.00 | 70 | 1008.9 |
| 20260510070555 | 56 | 333 | 0.0 | 0.0 | 0.00 | 0.14 | 0.00 | 70 | 1008.8 |
| 20260510070055 | 56 | 333 | 0.0 | 0.0 | 0.00 | 0.15 | 0.00 | 70 | 1008.8 |
| 20260510065555 | 56 | 333 | 0.0 | 0.0 | 0.00 | 0.15 | 0.00 | 70 | 1008.9 |
| 20260510065054 | 56 | 333 | 0.0 | 0.0 | 0.00 | 0.15 | 0.00 | 70 | 1009.0 |
| 20260510064600 | 56 | 333 | 0.0 | 0.0 | 0.00 | 0.15 | 0.00 | 70 | 1009.1 |
| 20260510064053 | 56 | 333 | 0.0 | 0.0 | 0.00 | 0.15 | 0.00 | 70 | 1009.0 |
| 20260510063553 | 56 | 333 | 0.0 | 0.0 | 0.00 | 0.15 | 0.00 | 70 | 1009.0 |
| 20260510063053 | 57 | 333 | 0.0 | 0.0 | 0.00 | 0.15 | 0.00 | 70 | 1009.0 |
| 20260510062551 | 57 | 333 | 0.0 | 0.0 | 0.00 | 0.15 | 0.00 | 70 | 1009.0 |
| 20260510062051 | 57 | 333 | 0.0 | 0.0 | 0.00 | 0.15 | 0.00 | 70 | 1009.1 |
| 20260510061554 | 57 | 333 | 0.0 | 0.0 | 0.00 | 0.15 | 0.00 | 70 | 1009.2 |
| 20260510061051 | 57 | 333 | 0.0 | 0.0 | 0.00 | 0.15 | 0.00 | 70 | 1009.2 |
| 20260510060551 | 57 | 333 | 0.0 | 0.0 | 0.00 | 0.15 | 0.00 | 70 | 1009.2 |
| 20260510060051 | 57 | 333 | 0.0 | 0.0 | 0.00 | 0.15 | 0.00 | 70 | 1009.2 |
| 20260510055550 | 57 | 333 | 0.0 | 0.0 | 0.00 | 0.15 | 0.00 | 70 | 1009.2 |
| 20260510055050 | 57 | 333 | 0.0 | 0.0 | 0.00 | 0.15 | 0.00 | 70 | 1009.2 |
| 20260510054550 | 57 | 333 | 0.0 | 0.0 | 0.00 | 0.15 | 0.00 | 70 | 1009.1 |
| 20260510054051 | 57 | 333 | 0.0 | 0.0 | 0.00 | 0.15 | 0.00 | 70 | 1009.1 |
| 20260510053549 | 57 | 333 | 0.0 | 0.0 | 0.00 | 0.15 | 0.00 | 70 | 1009.1 |
| 20260510053049 | 57 | 333 | 0.0 | 0.0 | 0.00 | 0.15 | 0.00 | 70 | 1009.1 |
| 20260510052548 | 57 | 333 | 0.0 | 0.0 | 0.00 | 0.15 | 0.00 | 70 | 1009.1 |
| 20260510052048 | 57 | 333 | 0.0 | 0.0 | 0.00 | 0.15 | 0.00 | 70 | 1009.1 |
| 20260510051549 | 57 | 333 | 0.0 | 0.0 | 0.00 | 0.15 | 0.00 | 70 | 1009.1 |
| 20260510051046 | 58 | 333 | 0.0 | 0.0 | 0.00 | 0.15 | 0.00 | 69 | 1009.1 |
| 20260510050546 | 58 | 333 | 0.0 | 0.0 | 0.00 | 0.15 | 0.00 | 69 | 1009.1 |
| 20260510050046 | 58 | 333 | 0.0 | 0.0 | 0.00 | 0.15 | 0.00 | 69 | 1009.1 |
| 20260510045547 | 58 | 333 | 0.0 | 0.0 | 0.00 | 0.15 | 0.00 | 69 | 1009.1 |
| 20260510045049 | 58 | 333 | 0.0 | 0.0 | 0.00 | 0.15 | 0.00 | 68 | 1009.2 |
| 20260510044550 | 58 | 333 | 0.0 | 0.0 | 0.00 | 0.15 | 0.00 | 68 | 1009.3 |
| 20260510044046 | 58 | 333 | 0.0 | 0.0 | 0.00 | 0.15 | 0.00 | 68 | 1009.2 |
| 20260510043543 | 58 | 333 | 0.0 | 0.0 | 0.00 | 0.15 | 0.00 | 68 | 1009.2 |
| 20260510043043 | 58 | 333 | 0.0 | 0.0 | 0.00 | 0.15 | 0.00 | 68 | 1009.1 |
| 20260510042542 | 58 | 333 | 0.0 | 0.0 | 0.00 | 0.15 | 0.00 | 68 | 1009.1 |
| 20260510042041 | 59 | 333 | 0.0 | 0.0 | 0.00 | 0.15 | 0.00 | 68 | 1009.2 |
| 20260510041542 | 59 | 333 | 0.0 | 0.0 | 0.00 | 0.15 | 0.00 | 68 | 1009.1 |
| 20260510041038 | 59 | 333 | 0.0 | 0.0 | 0.00 | 0.15 | 0.00 | 67 | 1009.1 |
| 20260510040538 | 59 | 333 | 0.0 | 0.0 | 0.00 | 0.15 | 0.00 | 67 | 1009.1 |
| 20260510040037 | 59 | 333 | 0.0 | 0.0 | 0.00 | 0.15 | 0.15 | 67 | 1009.1 |
| 20260510035536 | 59 | 333 | 0.0 | 0.0 | 0.00 | 0.15 | 0.15 | 67 | 1009.1 |
| 20260510035036 | 59 | 333 | 0.0 | 0.0 | 0.00 | 0.15 | 0.15 | 66 | 1009.0 |
| 20260510034537 | 59 | 333 | 0.0 | 0.0 | 0.00 | 0.15 | 0.15 | 66 | 1009.0 |
| 20260510034037 | 60 | 333 | 0.0 | 0.0 | 0.00 | 0.15 | 0.15 | 65 | 1009.0 |
| 20260510033536 | 60 | 333 | 0.0 | 0.0 | 0.00 | 0.15 | 0.15 | 66 | 1009.0 |
| 20260510033034 | 60 | 333 | 0.0 | 0.0 | 0.00 | 0.15 | 0.15 | 65 | 1009.1 |
| 20260510032536 | 60 | 333 | 0.0 | 0.0 | 0.00 | 0.15 | 0.15 | 65 | 1008.9 |
| 20260510032036 | 60 | 333 | 0.0 | 0.0 | 0.00 | 0.15 | 0.15 | 64 | 1008.9 |
| 20260510031536 | 61 | 333 | 0.0 | 0.0 | 0.00 | 0.15 | 0.15 | 64 | 1009.0 |
| 20260510031034 | 61 | 333 | 0.0 | 0.0 | 0.00 | 0.15 | 0.15 | 64 | 1008.9 |
| 20260510030534 | 61 | 333 | 0.0 | 0.0 | 0.00 | 0.15 | 0.15 | 64 | 1008.8 |
| 20260510030034 | 61 | 333 | 0.0 | 0.0 | 0.00 | 0.15 | 0.15 | 64 | 1008.7 |
| 20260510025533 | 61 | 333 | 0.0 | 0.0 | 0.00 | 0.15 | 0.15 | 64 | 1008.7 |
| 20260510025035 | 61 | 333 | 0.0 | 0.0 | 0.00 | 0.15 | 0.15 | 64 | 1008.7 |
| 20260510024533 | 62 | 333 | 0.0 | 0.0 | 0.00 | 0.15 | 0.15 | 64 | 1008.6 |
| 20260510024033 | 62 | 333 | 0.0 | 0.0 | 0.00 | 0.15 | 0.15 | 63 | 1008.6 |
| 20260510023537 | 62 | 333 | 0.0 | 0.0 | 0.00 | 0.15 | 0.15 | 63 | 1008.5 |
| 20260510023033 | 62 | 333 | 0.0 | 0.0 | 0.00 | 0.15 | 0.15 | 62 | 1008.5 |
| 20260510022533 | 63 | 333 | 0.0 | 0.0 | 0.00 | 0.15 | 0.15 | 62 | 1008.5 |
| 20260510022033 | 63 | 333 | 0.0 | 0.0 | 0.00 | 0.15 | 0.15 | 61 | 1008.4 |
| 20260510021537 | 63 | 333 | 0.0 | 0.0 | 0.00 | 0.15 | 0.15 | 61 | 1008.4 |
| 20260510021032 | 64 | 333 | 0.0 | 0.0 | 0.00 | 0.15 | 0.15 | 60 | 1008.4 |
| 20260510020532 | 64 | 333 | 0.0 | 0.0 | 0.00 | 0.15 | 0.15 | 59 | 1008.3 |
| 20260510020033 | 64 | 333 | 0.0 | 0.0 | 0.00 | 0.15 | 0.15 | 59 | 1008.3 |
| 20260510015532 | 64 | 333 | 0.0 | 0.0 | 0.00 | 0.15 | 0.15 | 59 | 1008.1 |
| 20260510015035 | 65 | 333 | 0.0 | 0.0 | 0.00 | 0.15 | 0.15 | 58 | 1008.1 |
| 20260510014533 | 65 | 333 | 0.0 | 0.0 | 0.00 | 0.15 | 0.15 | 57 | 1008.0 |
| 20260510014034 | 65 | 333 | 0.0 | 0.0 | 0.00 | 0.15 | 0.15 | 56 | 1007.8 |
| 20260510013532 | 66 | 333 | 0.0 | 0.0 | 0.00 | 0.15 | 0.15 | 56 | 1007.8 |
| 20260510013031 | 66 | 333 | 0.0 | 0.0 | 0.00 | 0.15 | 0.15 | 54 | 1007.8 |
| 20260510012532 | 66 | 333 | 0.0 | 0.0 | 0.00 | 0.15 | 0.15 | 55 | 1007.8 |
| 20260510012030 | 67 | 333 | 0.0 | 0.0 | 0.00 | 0.15 | 0.15 | 54 | 1007.7 |
| 20260510011531 | 67 | 333 | 0.0 | 0.0 | 0.00 | 0.15 | 0.15 | 53 | 1007.5 |
| 20260510011030 | 67 | 333 | 0.0 | 0.0 | 0.00 | 0.15 | 0.15 | 51 | 1007.5 |
| 20260510010531 | 68 | 333 | 0.0 | 0.0 | 0.00 | 0.15 | 0.15 | 51 | 1007.5 |
| 20260510010030 | 68 | 333 | 0.0 | 0.0 | 0.00 | 0.15 | 0.15 | 50 | 1007.3 |
| 20260510005531 | 68 | 333 | 0.0 | 0.0 | 0.00 | 0.15 | 0.15 | 50 | 1007.3 |
| 20260510005030 | 69 | 333 | 0.0 | 0.0 | 0.00 | 0.15 | 0.15 | 49 | 1007.2 |
| 20260510004529 | 69 | 333 | 0.0 | 0.0 | 0.00 | 0.15 | 0.15 | 49 | 1007.1 |
| 20260510004029 | 69 | 333 | 0.0 | 0.0 | 0.00 | 0.15 | 0.15 | 48 | 1007.0 |
| 20260510003530 | 70 | 333 | 0.0 | 0.0 | 0.00 | 0.15 | 0.15 | 48 | 1006.8 |
| 20260510003031 | 70 | 333 | 0.0 | 0.0 | 0.00 | 0.15 | 0.15 | 48 | 1006.7 |
| 20260510002529 | 70 | 333 | 0.0 | 0.0 | 0.00 | 0.15 | 0.15 | 47 | 1006.8 |
| 20260510002030 | 71 | 333 | 0.0 | 0.0 | 0.00 | 0.15 | 0.15 | 47 | 1006.7 |
| 20260510001528 | 71 | 333 | 0.0 | 0.0 | 0.00 | 0.15 | 0.15 | 46 | 1006.6 |
| 20260510001028 | 71 | 333 | 0.0 | 0.0 | 0.00 | 0.15 | 0.15 | 45 | 1006.5 |
| 20260510000529 | 71 | 333 | 0.0 | 0.0 | 0.00 | 0.15 | 0.15 | 46 | 1006.4 |
| 20260510000027 | 71 | 333 | 0.0 | 0.0 | 0.00 | 0.15 | 0.15 | 46 | 1006.3 |
| 20260509235528 | 71 | 333 | 0.0 | 1.0 | 0.00 | 0.15 | 0.15 | 45 | 1006.2 |
| 20260509235028 | 72 | 167 | 0.0 | 1.0 | 0.00 | 0.15 | 0.15 | 46 | 1006.2 |
| 20260509234534 | 72 | 306 | 0.0 | 1.0 | 0.00 | 0.15 | 0.15 | 46 | 1006.2 |
| 20260509234028 | 72 | 306 | 0.0 | 1.0 | 0.00 | 0.15 | 0.15 | 45 | 1006.1 |
| 20260509233529 | 72 | 306 | 0.0 | 3.0 | 0.00 | 0.15 | 0.15 | 45 | 1006.2 |
| 20260509233027 | 72 | 310 | 0.0 | 3.0 | 0.00 | 0.15 | 0.15 | 44 | 1006.1 |
| 20260509232527 | 72 | 311 | 0.0 | 2.0 | 0.00 | 0.15 | 0.15 | 44 | 1006.1 |
| 20260509232027 | 72 | 315 | 0.0 | 3.0 | 0.00 | 0.15 | 0.15 | 43 | 1006.0 |
| 20260509231526 | 72 | 286 | 0.0 | 3.0 | 0.00 | 0.15 | 0.15 | 45 | 1006.0 |
| 20260509231026 | 73 | 69 | 0.0 | 2.0 | 0.00 | 0.15 | 0.15 | 43 | 1005.9 |
| 20260509230526 | 73 | 103 | 0.0 | 2.0 | 0.00 | 0.15 | 0.15 | 43 | 1005.7 |
| 20260509230026 | 73 | 103 | 0.0 | 4.0 | 0.00 | 0.15 | 0.15 | 43 | 1005.8 |
| 20260509225527 | 73 | 103 | 0.0 | 4.0 | 0.00 | 0.15 | 0.15 | 43 | 1005.8 |
| 20260509225028 | 73 | 96 | 0.0 | 1.0 | 0.00 | 0.15 | 0.15 | 43 | 1005.9 |